CAPE
0 0 0 0 0 0 0 0 0 0 0 0 0 0 0 0 0 0 0 37 120 147 190 300 3 0 0 14 5 0 8 26 12 7 6 2 4 0 0 38 39 34 12 8
0 0 0 0 0 0 0 0 0 0 0 0 0 0 0 0 0 0 0 35 107 204 357 316 27 13 1 14 9 0 31 0 14 5 6 12 6 1 0 41 58 42 13 0
0 0 0 0 0 0 0 0 0 0 0 0 0 0 0 0 0 0 0 1 61 216 522 435 211 46 59 19 21 4 0 1 4 3 5 2 8 8 0 107 52 56 47 10
0 0 0 0 0 0 0 0 0 0 0 0 0 0 0 0 0 0 0 24 55 166 350 583 375 150 98 15 16 19 1 0 2 1 7 0 0 0 0 1 54 63 100 92
0 0 0 0 0 0 0 0 0 0 0 0 0 0 0 0 0 0 0 0 40 148 367 694 518 272 173 7 9 20 0 4 7 8 5 3 0 0 62 3 0 0 112 116
0 0 0 0 0 0 0 0 0 0 0 0 0 0 0 0 0 0 0 0 0 63 292 628 597 302 223 3 2 21 0 9 1 9 8 2 0 0 0 3 1 0 81 107
0 0 0 0 0 0 0 0 0 0 0 0 0 0 0 0 0 0 0 0 0 22 161 552 685 504 193 1 5 4 3 5 0 0 0 2 1 4 0 5 9 3 52 56
0 0 0 0 0 0 0 0 0 0 0 0 0 0 0 0 0 0 0 0 0 7 125 467 669 652 191 43 1 3 4 6 0 0 27 42 36 12 11 2 0 59 94 115
0 0 0 0 0 0 0 0 0 0 0 0 0 2 0 0 0 0 0 0 0 0 78 327 561 597 306 146 11 4 5 9 6 3 12 22 38 45 80 42 27 78 140 80
0 0 0 0 0 0 0 0 0 0 0 0 0 0 1 0 0 0 0 0 0 0 19 246 462 590 417 204 36 3 5 28 56 48 17 17 17 23 27 56 59 81 127 96
0 0 0 0 0 0 0 0 0 0 0 0 0 0 7 0 0 0 0 0 0 0 17 198 341 478 508 317 98 0 14 35 57 48 65 36 15 12 16 72 84 65 169 84
18 42 0 0 0 0 0 0 0 0 0 0 0 0 8 0 0 0 0 0 0 0 51 192 256 345 404 422 238 110 48 44 65 51 62 79 55 13 29 89 166 208 161 79
2 22 0 0 0 0 0 0 0 1 15 0 19 0 0 0 0 0 17 0 0 0 34 224 303 306 345 405 340 171 95 62 48 52 71 72 69 85 247 181 151 69 86 72
0 0 0 0 13 17 4 0 1 8 15 0 0 0 17 5 0 0 2 15 10 0 5 153 359 364 332 340 391 259 151 118 47 59 63 46 76 70 85 56 43 10 11 17
11 0 0 0 0 0 0 0 0 0 0 30 0 0 0 1 0 0 0 6 8 3 0 18 267 483 428 387 360 271 225 151 170 164 171 175 122 10 5 2 5 0 0 2
3 19 23 0 1 0 5 0 0 1 0 8 9 5 20 21 0 0 0 0 3 7 3 4 20 291 513 414 441 303 240 172 153 184 203 177 174 161 158 3 13 21 3 4
0 0 0 0 37 29 1 42 59 20 2 0 9 10 25 11 0 0 0 0 0 1 17 0 10 24 298 496 381 400 275 192 128 120 125 122 105 105 134 138 100 87 51 31
0 0 0 0 0 0 0 0 43 31 25 3 1 1 7 5 3 1 0 0 0 0 0 1 1 0 7 214 358 416 295 183 125 107 86 62 58 58 75 135 123 87 88 80
0 0 0 0 61 13 0 0 10 98 71 68 39 38 63 25 4 4 0 0 0 0 0 0 0 0 0 22 172 259 314 248 160 109 95 71 63 72 78 139 183 163 147 132
0 23 0 0 0 0 0 0 4 7 238 174 199 210 133 60 60 78 0 0 0 0 0 0 0 0 0 0 1 84 215 240 205 201 147 68 70 94 142 212 246 174 123 145
0 0 0 0 0 13 49 51 22 141 105 135 156 238 182 187 152 18 0 9 1 0 0 0 0 7 18 47 28 67 105 99 35 47 62 78 134 200 216 250 232 230 233 189
6 0 0 0 45 0 1 19 14 28 195 160 129 192 325 181 31 4 0 0 0 0 0 0 0 3 2 16 29 20 0 7 34 60 108 187 263 230 271 242 164 123 103 66
1 83 1 76 38 6 0 0 22 33 35 9 112 308 254 157 26 18 13 0 0 0 0 0 4 0 0 0 5 25 22 72 97 149 169 192 216 143 111 85 49 15 5 6
0 0 8 0 2 0 0 0 1 1 5 6 13 3 120 170 129 23 3 0 0 0 0 10 0 0 0 0 0 18 58 105 159 195 206 146 77 40 10 1 0 0 1 0
13 1 2 0 0 6 2 0 0 3 8 10 0 40 94 95 62 15 10 5 1 0 0 5 13 10 6 6 16 49 106 118 99 121 71 15 2 0 0 0 0 0 0 0
26 16 28 53 1 1 1 0 0 0 0 1 6 26 31 46 57 38 39 49 61 35 36 0 42 56 58 66 62 96 92 61 34 4 0 0 0 0 0 0 0 0 0 0
CIN
0 0 0 0 0 0 0 0 0 0 0 0 0 0 0 0 0 0 0 -64 -78 -115 -140 -115 0 0 0 0 0 0 0 -1 -2 -3 0 0 0 0 0 -38 -70 -100 -7 -3
0 0 0 0 0 0 0 0 0 0 0 0 0 0 0 0 0 0 0 -35 -55 -104 -131 -132 -272 -5 0 0 0 0 0 -4 -1 0 0 0 0 0 0 -39 -41 -46 -75 0
0 0 0 0 0 0 0 0 0 0 0 0 0 0 0 0 0 0 0 -4 -42 -68 -90 -139 -197 -238 -196 0 0 0 0 -7 0 0 0 0 0 0 0 -4 -20 -30 -21 -5
0 0 0 0 0 0 0 0 0 0 0 0 0 0 0 0 0 0 0 -44 -39 -57 -79 -122 -179 -219 -209 0 0 -171 0 0 -3 0 0 0 0 0 0 0 -17 -16 -13 -33
0 0 0 0 0 0 0 0 0 0 0 0 0 0 0 0 0 0 0 0 -29 -44 -75 -85 -166 -206 -195 0 0 0 -5 -189 -2 -1 0 0 0 0 0 0 0 0 -16 -15
0 0 0 0 0 0 0 0 0 0 0 0 0 0 0 0 0 0 0 0 0 -54 -64 -73 -137 -214 -203 0 0 0 0 -83 -25 -2 0 0 0 0 0 -1 0 0 -5 -7
0 0 0 0 0 0 0 0 0 0 0 0 0 0 0 0 0 0 0 0 0 -98 -77 -76 -140 -195 -266 0 0 0 0 0 0 0 -1 -1 0 -1 0 0 0 -1 0 -1
0 0 0 0 0 0 0 0 0 0 0 0 0 0 0 0 0 0 0 0 0 -110 -101 -90 -117 -159 -289 -382 0 0 0 0 0 0 0 -189 -4 0 0 -1 0 0 0 0
0 0 0 0 0 0 0 0 0 0 0 0 0 0 0 0 0 0 0 0 0 0 -102 -97 -119 -174 -267 -330 -154 0 0 0 -9 0 0 -73 -124 -120 -42 -10 -2 0 -3 -1
0 0 0 0 0 0 0 0 0 0 0 0 0 0 0 0 0 0 0 0 0 0 -118 -101 -112 -182 -251 -297 -392 0 0 -314 -235 -229 0 0 0 0 0 -61 0 -9 -4 -1
0 0 0 0 0 0 0 0 0 0 0 0 0 0 -2 0 0 0 0 0 0 0 -112 -106 -113 -139 -194 -252 -345 -1 -392 -308 -253 -235 -197 -194 0 0 -37 -70 -39 -57 -15 -21
-4 0 0 0 0 0 0 0 0 0 0 0 0 0 -10 0 0 0 0 0 0 0 -149 -128 -137 -157 -190 -227 -282 -361 -391 -337 -294 -267 -235 -209 -192 -195 -167 -133 -95 -42 -37 -30
-3 0 0 0 0 0 0 0 0 0 0 0 0 0 0 0 0 0 -36 -8 0 0 -134 -124 -161 -184 -199 -214 -240 -299 -320 -366 -351 -332 -297 -260 -233 -217 -176 -199 -155 -123 -91 -75
0 0 0 0 -26 -12 -1 0 0 0 0 0 0 0 0 -1 0 0 -16 -31 -37 -4 -87 -133 -148 -183 -198 -212 -227 -250 -278 -60 -79 -40 -59 -189 -276 -262 -237 -205 -173 -172 -65 -110
0 0 0 0 0 0 0 0 0 0 0 0 0 0 0 0 0 -8 -1 -57 -21 -67 0 -75 -132 -128 -169 -179 -217 -258 -267 -59 -53 -39 -39 -38 -64 -127 -34 -62 -24 0 0 0
0 0 0 0 -2 0 -11 0 -1 0 0 0 0 0 0 0 0 0 0 -1 -24 -31 -28 -31 -140 -114 -152 -203 -199 -262 -299 -365 -94 -93 -77 -58 -57 -49 -57 -33 -45 -23 -12 -2
0 0 0 0 -1 -1 0 -7 -12 -4 -2 0 0 0 -1 0 0 0 -26 0 0 -39 -44 0 -36 -97 -151 -170 -260 -241 -285 -331 -386 -194 -136 -128 -112 -116 -60 -58 -51 -57 -39 -32
0 0 0 0 0 0 0 -5 -2 -15 0 -6 0 0 -1 -1 -3 -7 -46 0 0 0 0 -36 -57 -52 -96 -175 -219 -206 -264 -323 -376 -373 -371 -382 -269 -150 -81 -62 -77 -62 -48 -41
0 0 0 0 0 -1 0 -1 -2 0 -1 -1 0 0 0 -9 -25 -33 0 0 0 0 0 0 -10 -7 0 -180 -183 -250 -253 -292 -356 -362 -370 -381 -391 -195 -127 -65 -64 -79 -66 -54
0 0 0 0 0 0 -1 0 -4 -1 0 -6 -8 -8 -14 -18 -8 -5 0 0 0 0 0 0 0 0 0 0 -266 -277 -286 -310 -350 -376 -390 -403 -151 -182 -127 -79 -70 -64 -49 -66
0 0 0 0 0 0 -4 -22 -9 0 -2 -11 -8 -1 -7 0 -12 -46 -45 -88 -52 0 0 0 0 -4 -4 -8 -215 -398 -425 -453 -306 -335 -223 -196 -187 -165 -162 -156 -69 -78 -51 -40
-3 0 0 0 0 0 -11 -8 -3 -1 -4 0 -4 0 -4 -5 -28 -19 0 -17 0 0 0 -20 0 -15 -5 -10 -390 -21 0 -226 -158 -232 -261 -205 -130 -120 -155 -123 -103 -72 -51 -52
-1 0 -12 0 0 -6 0 0 -11 -3 -2 -13 -30 -8 -8 -2 -26 -13 -54 0 0 0 0 0 -13 0 0 0 -14 -15 -13 -267 -216 -203 -121 -159 -145 -136 -133 -121 -127 -137 -85 -4
0 0 0 0 -4 -1 0 0 -1 -2 -2 -6 -16 -50 -26 -21 -9 -47 -107 0 0 0 0 -57 -7 0 0 0 0 -309 -276 -209 -189 -149 -117 -110 -143 -158 -203 0 0 0 0 0
-1 -2 0 0 0 -28 -2 0 0 -1 -5 -4 0 -72 -62 -46 -48 -65 -26 -23 -8 0 0 -23 -34 -58 -77 -139 -136 -133 -114 -86 -90 -104 -110 -126 -15 0 0 0 0 0 0 0
0 -8 0 0 0 0 -16 0 0 0 0 -3 -79 -55 -57 -45 -15 -9 -1 -56 -43 -20 -38 -2 -3 0 -1 -1 -20 -22 -20 -16 -17 -20 0 0 0 0 0 0 0 0 0 0
Wind_Speed
nan nan nan nan nan nan nan nan nan nan nan nan nan nan nan nan nan nan nan nan 21 22 23 30 nan nan nan nan nan nan nan nan nan nan nan nan nan nan nan nan nan nan nan nan
nan nan nan nan nan nan nan nan nan nan nan nan nan nan nan nan nan nan nan nan 21 20 25 31 nan nan nan nan nan nan nan nan nan nan nan nan nan nan nan nan nan nan nan nan
nan nan nan nan nan nan nan nan nan nan nan nan nan nan nan nan nan nan nan nan nan 19 24 31 20 nan nan nan nan nan nan nan nan nan nan nan nan nan nan 7 nan nan nan nan
nan nan nan nan nan nan nan nan nan nan nan nan nan nan nan nan nan nan nan nan nan 21 21 24 18 17 nan nan nan nan nan nan nan nan nan nan nan nan nan nan nan nan 7 nan
nan nan nan nan nan nan nan nan nan nan nan nan nan nan nan nan nan nan nan nan nan 21 23 22 19 18 17 nan nan nan nan nan nan nan nan nan nan nan nan nan nan nan 11 10
nan nan nan nan nan nan nan nan nan nan nan nan nan nan nan nan nan nan nan nan nan nan 23 17 19 18 17 nan nan nan nan nan nan nan nan nan nan nan nan nan nan nan nan 7
nan nan nan nan nan nan nan nan nan nan nan nan nan nan nan nan nan nan nan nan nan nan 19 17 23 21 20 nan nan nan nan nan nan nan nan nan nan nan nan nan nan nan nan nan
nan nan nan nan nan nan nan nan nan nan nan nan nan nan nan nan nan nan nan nan nan nan 19 19 22 22 21 nan nan nan nan nan nan nan nan nan nan nan nan nan nan nan nan 3
nan nan nan nan nan nan nan nan nan nan nan nan nan nan nan nan nan nan nan nan nan nan nan 19 21 21 20 21 nan nan nan nan nan nan nan nan nan nan nan nan nan nan 7 nan
nan nan nan nan nan nan nan nan nan nan nan nan nan nan nan nan nan nan nan nan nan nan nan 15 22 22 19 20 nan nan nan nan nan nan nan nan nan nan nan nan nan nan 6 nan
nan nan nan nan nan nan nan nan nan nan nan nan nan nan nan nan nan nan nan nan nan nan nan 17 22 19 21 22 nan nan nan nan nan nan nan nan nan nan nan nan nan nan 12 nan
nan nan nan nan nan nan nan nan nan nan nan nan nan nan nan nan nan nan nan nan nan nan nan 20 21 22 21 22 18 18 nan nan nan nan nan nan nan nan nan nan 20 24 23 nan
nan nan nan nan nan nan nan nan nan nan nan nan nan nan nan nan nan nan nan nan nan nan nan 18 19 22 22 23 20 17 nan nan nan nan nan nan nan nan 20 20 21 nan nan nan
nan nan nan nan nan nan nan nan nan nan nan nan nan nan nan nan nan nan nan nan nan nan nan 21 20 21 23 23 23 20 18 19 nan nan nan nan nan nan nan nan nan nan nan nan
nan nan nan nan nan nan nan nan nan nan nan nan nan nan nan nan nan nan nan nan nan nan nan nan 21 21 21 23 23 22 22 21 23 25 24 23 23 nan nan nan nan nan nan nan
nan nan nan nan nan nan nan nan nan nan nan nan nan nan nan nan nan nan nan nan nan nan nan nan nan 19 17 22 21 25 33 35 30 26 22 25 28 29 28 nan nan nan nan nan
nan nan nan nan nan nan nan nan nan nan nan nan nan nan nan nan nan nan nan nan nan nan nan nan nan nan 14 15 22 25 28 31 33 30 29 23 19 18 18 19 20 nan nan nan
nan nan nan nan nan nan nan nan nan nan nan nan nan nan nan nan nan nan nan nan nan nan nan nan nan nan nan 17 22 27 31 27 25 27 nan nan nan nan nan 19 18 nan nan nan
nan nan nan nan nan nan nan nan nan nan nan nan nan nan nan nan nan nan nan nan nan nan nan nan nan nan nan nan 21 26 30 30 32 31 nan nan nan nan nan 29 33 34 35 37
nan nan nan nan nan nan nan nan nan nan 23 41 38 38 37 nan nan nan nan nan nan nan nan nan nan nan nan nan nan nan 29 26 28 29 30 nan nan nan 32 35 38 38 41 43
nan nan nan nan nan nan nan nan nan 22 17 31 30 30 34 32 34 nan nan nan nan nan nan nan nan nan nan nan nan nan 34 nan nan nan nan nan 39 39 40 41 40 41 43 45
nan nan nan nan nan nan nan nan nan nan 22 30 14 24 33 31 nan nan nan nan nan nan nan nan nan nan nan nan nan nan nan nan nan nan 44 41 44 42 41 45 42 44 45 nan
nan nan nan nan nan nan nan nan nan nan nan nan 32 25 24 22 nan nan nan nan nan nan nan nan nan nan nan nan nan nan nan nan nan 49 53 51 51 47 48 nan nan nan nan nan
nan nan nan nan nan nan nan nan nan nan nan nan nan nan 21 17 17 nan nan nan nan nan nan nan nan nan nan nan nan nan nan 53 55 57 54 54 nan nan nan nan nan nan nan nan
nan nan nan nan nan nan nan nan nan nan nan nan nan nan nan nan nan nan nan nan nan nan nan nan nan nan nan nan nan nan 59 60 nan 62 nan nan nan nan nan nan nan nan nan nan
nan nan nan nan nan nan nan nan nan nan nan nan nan nan nan nan nan nan nan nan nan nan nan nan nan nan nan nan nan nan nan nan nan nan nan nan nan nan nan nan nan nan nan nan
Wind_Direction
nan nan nan nan nan nan nan nan nan nan nan nan nan nan nan nan nan nan nan nan 335 330 318 314 nan nan nan nan nan nan nan nan nan nan nan nan nan nan nan nan nan nan nan nan
nan nan nan nan nan nan nan nan nan nan nan nan nan nan nan nan nan nan nan nan 336 333 326 318 nan nan nan nan nan nan nan nan nan nan nan nan nan nan nan nan nan nan nan nan
nan nan nan nan nan nan nan nan nan nan nan nan nan nan nan nan nan nan nan nan nan 332 327 324 336 nan nan nan nan nan nan nan nan nan nan nan nan nan nan 244 nan nan nan nan
nan nan nan nan nan nan nan nan nan nan nan nan nan nan nan nan nan nan nan nan nan 320 339 330 343 347 nan nan nan nan nan nan nan nan nan nan nan nan nan nan nan nan 235 nan
nan nan nan nan nan nan nan nan nan nan nan nan nan nan nan nan nan nan nan nan nan 317 346 332 344 344 340 nan nan nan nan nan nan nan nan nan nan nan nan nan nan nan 256 259
nan nan nan nan nan nan nan nan nan nan nan nan nan nan nan nan nan nan nan nan nan nan 329 336 329 339 341 nan nan nan nan nan nan nan nan nan nan nan nan nan nan nan nan 276
nan nan nan nan nan nan nan nan nan nan nan nan nan nan nan nan nan nan nan nan nan nan 318 334 331 341 338 nan nan nan nan nan nan nan nan nan nan nan nan nan nan nan nan nan
nan nan nan nan nan nan nan nan nan nan nan nan nan nan nan nan nan nan nan nan nan nan 314 335 334 341 339 nan nan nan nan nan nan nan nan nan nan nan nan nan nan nan nan 341
nan nan nan nan nan nan nan nan nan nan nan nan nan nan nan nan nan nan nan nan nan nan nan 323 324 331 336 337 nan nan nan nan nan nan nan nan nan nan nan nan nan nan 356 nan
nan nan nan nan nan nan nan nan nan nan nan nan nan nan nan nan nan nan nan nan nan nan nan 313 321 323 329 331 nan nan nan nan nan nan nan nan nan nan nan nan nan nan 326 nan
nan nan nan nan nan nan nan nan nan nan nan nan nan nan nan nan nan nan nan nan nan nan nan 284 303 307 322 324 nan nan nan nan nan nan nan nan nan nan nan nan nan nan 319 nan
nan nan nan nan nan nan nan nan nan nan nan nan nan nan nan nan nan nan nan nan nan nan nan 280 285 297 316 320 325 329 nan nan nan nan nan nan nan nan nan nan 336 326 323 nan
nan nan nan nan nan nan nan nan nan nan nan nan nan nan nan nan nan nan nan nan nan nan nan 259 280 297 304 307 313 331 nan nan nan nan nan nan nan nan 339 335 344 nan nan nan
nan nan nan nan nan nan nan nan nan nan nan nan nan nan nan nan nan nan nan nan nan nan nan 240 265 284 293 296 301 304 314 317 nan nan nan nan nan nan nan nan nan nan nan nan
nan nan nan nan nan nan nan nan nan nan nan nan nan nan nan nan nan nan nan nan nan nan nan nan 246 262 273 283 288 291 304 313 314 314 310 309 303 nan nan nan nan nan nan nan
nan nan nan nan nan nan nan nan nan nan nan nan nan nan nan nan nan nan nan nan nan nan nan nan nan 242 265 287 299 307 308 311 310 313 305 303 298 295 292 nan nan nan nan nan
nan nan nan nan nan nan nan nan nan nan nan nan nan nan nan nan nan nan nan nan nan nan nan nan nan nan 244 283 298 305 301 300 311 314 308 302 302 306 306 296 293 nan nan nan
nan nan nan nan nan nan nan nan nan nan nan nan nan nan nan nan nan nan nan nan nan nan nan nan nan nan nan 250 281 285 291 294 292 300 nan nan nan nan nan 287 284 nan nan nan
nan nan nan nan nan nan nan nan nan nan nan nan nan nan nan nan nan nan nan nan nan nan nan nan nan nan nan nan 259 274 275 279 292 295 nan nan nan nan nan 272 270 266 264 262
nan nan nan nan nan nan nan nan nan nan 225 221 230 232 233 nan nan nan nan nan nan nan nan nan nan nan nan nan nan nan 257 273 281 287 290 nan nan nan 277 271 266 262 263 263
nan nan nan nan nan nan nan nan nan 166 206 188 211 222 240 244 244 nan nan nan nan nan nan nan nan nan nan nan nan nan 269 nan nan nan nan nan 280 272 269 268 268 269 269 269
nan nan nan nan nan nan nan nan nan nan 139 208 194 195 224 237 nan nan nan nan nan nan nan nan nan nan nan nan nan nan nan nan nan nan 262 267 271 267 269 272 271 271 272 nan
nan nan nan nan nan nan nan nan nan nan nan nan 201 200 213 218 nan nan nan nan nan nan nan nan nan nan nan nan nan nan nan nan nan 257 256 263 266 265 267 nan nan nan nan nan
nan nan nan nan nan nan nan nan nan nan nan nan nan nan 188 194 217 nan nan nan nan nan nan nan nan nan nan nan nan nan nan 250 252 254 257 258 nan nan nan nan nan nan nan nan
nan nan nan nan nan nan nan nan nan nan nan nan nan nan nan nan nan nan nan nan nan nan nan nan nan nan nan nan nan nan 242 248 nan 253 nan nan nan nan nan nan nan nan nan nan
nan nan nan nan nan nan nan nan nan nan nan nan nan nan nan nan nan nan nan nan nan nan nan nan nan nan nan nan nan nan nan nan nan nan nan nan nan nan nan nan nan nan nan nan